Regional Weather Roundup
Issued by NWS Pendleton, OR

Home | Current Version | Previous Version | Text Only | Print | Product List | Glossary On
Versions: 1 2 3 4 5 6 7 8 9 10 11 12 13 14 15 16 17 18 19 20 21 22 23 24 25 26 27 28 29 30 31 32 33 34 35 36 37 38 39 40 41 42 43 44 45 46 47 48 49 50
000
ASUS46 KPDT 051304
RWRPDT
PENDLETON REGIONAL WEATHER ROUNDUP
NATIONAL WEATHER SERVICE PENDLETON OREGON
600 AM PDT THU MAY 5 2016

NOTE: FAIR INDICATES FEW OR NO CLOUDS BELOW 12,000 FEET WITH NO
SIGNIFICANT WEATHER AND/OR OBSTRUCTIONS TO VISIBILITY.

# INDICATES UNOFFICIAL STATION AND DATA

WAZ520-051410-
EAST SLOPES OF WASHINGTON CASCADES

CITY            SKY/WX      TMP DP  RH  WIND    PRES   REMARKS
#CLE ELUM HS    N/A         49  44  83  W3      29.90S
#CLE ELUM 2NW   N/A         48  44  86  W1      N/A
#CLE ELUM LAKE  N/A         45  43  93  CALM    29.88S
#GLENWOOD       N/A         49  48  96  CALM    29.88S
#NELSON 3SW     N/A         44  42  93  CALM    30.09S
#NILE           N/A         47  45  93  CALM    29.18S
#RONALD 2NW     N/A         46  N/A N/A N1      29.82S
#TEANAWAY 4NE   N/A         49  49  100 CALM    N/A
#TROUT LAKE 1NE N/A         46  45  96  CALM    29.88S
#TROUT LAKE 1E  N/A         47  46  96  CALM    29.89S
$$

WAZ521-051410-
SIMCOE HIGHLANDS

CITY            SKY/WX      TMP DP  RH  WIND    PRES   REMARKS
#BICKLETON HS   N/A         51  45  80  N6      N/A
#CENTERVILLE 1SWN/A         47  44  89  CALM    29.86R
#GOLDENDALE 1NE N/A         51  48  89  SW2     N/A
#GOODNOE HILLS  N/A         51  50  96  W8      29.81S
#LYLE 6NE       N/A         48  46  93  CALM    29.88R
$$

WAZ026-051410-
KITTITAS VALLEY

CITY            SKY/WX      TMP DP  RH  WIND    PRES   REMARKS
ELLENSBURG AP   CLOUDY      54  45  71  N10     29.92R
YTC-OPS AREA    MOCLDY      48  43  83  W12     29.94R WCI 43
#ELLENSBURG 3NE N/A         51  46  83  N7      29.92R
#ELLENSBURG     N/A         55  50  83  N3      N/A
#ELLENSBURG 1E  N/A         53  N/A N/A CALM    N/A
#KITTITAS 4N    N/A         50  46  86  E2      29.96R
#KITTITAS 3S    N/A         51  48  89  CALM    29.87R
#THORP 6N       N/A         49  45  86  W10     29.90R
$$

WAZ027-051410-
YAKIMA VALLEY

CITY            SKY/WX      TMP DP  RH  WIND    PRES   REMARKS
SUNNYSIDE AP    MOCLDY      53  52  96  CALM    29.89S
YAKIMA AIRPORT  MOCLDY      58  46  64  N5      29.92R
YAKIMA-VAGABOND MOCLDY      54  47  77  E10     29.90R
#DONALD 2NE     N/A         55  41  59  CALM    28.75S
#GRANDVIEW      N/A         55  52  90  CALM    29.88R
#MABTON         N/A         53  51  93  E1      29.88S
#MOXEE 2E       N/A         55  42  61  CALM    29.87R
#NACHES 2SW     N/A         55  46  72  W2      29.91S
#TERRACE HTS    N/A         57  48  72  CALM    29.82S
#TOPPENISH      N/A         55  52  90  CALM    29.79S
#WEST VALLEY    N/A         55  46  72  CALM    29.86R
#W YAKIMA       N/A         54  47  77  N1      29.88R
#WHITE SWAN 5E  N/A         52  49  89  CALM    29.88R
#WILEY CITY 3W  N/A         51  44  77  CALM    29.88R
$$

WAZ028-051410-
LOWER COLUMBIA BASIN...WASHINGTON

CITY            SKY/WX      TMP DP  RH  WIND    PRES   REMARKS
HANFORD         FOG         56  55  96  NW6     29.88S VSB 1/4
PASCO           PTCLDY      54  52  93  CALM    29.90R
PROSSER AWOS    N/A         55  54  96  N3      29.92R
RICHLAND AWOS   PTCLDY      58  56  93  CALM    29.90R
#BENTON CITY    N/A         55  51  86  CALM    29.78S
#CONNELL 5N     N/A         53  52  96  NE1     29.87R
#CONNELL 5NW    N/A         53  52  96  CALM    29.84R
#ELTOPIA 6NW    N/A         54  53  96  CALM    28.87S
#KAHLOTUS       N/A         55  52  90  SW1     29.87R
#KENNEWICK 3S   N/A         56  52  86  N2      29.87R
#PATERSON       N/A         55  51  86  CALM    29.87S
#SAGEMOOR 2W    N/A         55  53  93  CALM    29.73R
#TOUCHET 2S     N/A         53  51  93  CALM    29.86S
#WEST PASCO     N/A         57  53  86  CALM    29.94R
$$

WAZ029-051410-
FOOTHILLS OF THE BLUES...WASHINGTON

CITY            SKY/WX      TMP DP  RH  WIND    PRES   REMARKS
WALLA WALLA AP  MOCLDY      56  53  90  CALM    29.91R
#CLYDE 6NW      N/A         53  50  89  CALM    29.87R
#LOWDEN 2SE     N/A         53  52  96  CALM    29.87R
#PLEASANT VIEW 1N/A         52  50  93  CALM    29.90R
#PRESCOTT       N/A         53  52  96  CALM    29.87S
#SUDBURY        N/A         62  N/A N/A CALM    N/A
#WHITMAN COLLEGEN/A         56  53  90  E1      29.92S
#WAITSBURG 5S   N/A         54  51  90  CALM    29.95S
#WAITSBURG 8N   N/A         52  37  56  CALM    29.76S
#WALLA WALLA U  N/A         57  55  93  CALM    29.88R
#WHITMAN MISSIONN/A         54  52  93  CALM    29.89S
$$

WAZ030-051410-
BLUE MOUNTAINS...WASHINGTON

CITY            SKY/WX      TMP DP  RH  WIND    PRES   REMARKS
#DIXIE 5SE      N/A         53  47  80  S1      29.87S
$$

ORZ009-041-WAZ024-051410-
COLUMBIA RIVER GORGE

CITY            SKY/WX      TMP DP  RH  WIND    PRES   REMARKS
HOOD RIVER AP   CLOUDY      50  48  93  CALM    29.94S
THE DALLES AP   CLOUDY      56  48  74  NW9     29.92R
#ARLINGTON AIRPON/A         52  49  89  W3      29.89R
#CELILO DOT     N/A         57  45  64  SW2     N/A
#MARYHILL 2W    N/A         55  51  86  CALM    N/A
#MOSIER 1S      N/A         53  42  66  CALM    29.91S
#MURDOCK        N/A         57  49  75  W14     29.88R
#RUFUS DOT      N/A         57  50  77  W7      N/A

$$

ORZ510-051410-
NORTH CENTRAL OREGON

CITY            SKY/WX      TMP DP  RH  WIND    PRES   REMARKS
#ANTELOPE       N/A         49  47  93  CALM    29.75R
#COW CYN RST AREN/A         50  50  100 SE1     N/A
#DUFUR 9E       N/A         49  46  89  W7      29.93R
#GRASS VALLEY   N/A         48  47  96  S1      N/A
#KENT DOT       N/A         47  43  86  N1      N/A
#MAUPIN SCHOOL  N/A         53  49  86  CALM    29.96R
#MORO SCHOOL    N/A         50  49  96  W8      29.92R
#TYGH VALLEY 2NEN/A         51  48  89  CALM    29.90R
#WAPANITIA AIRPON/A         51  48  89  CALM    29.91R
#WASCO DOT      N/A         49  47  93  CALM    N/A
#WASCO 5NE      N/A         49  46  89  SW2     29.87F
$$

ORZ511-051410-
CENTRAL OREGON

CITY            SKY/WX      TMP DP  RH  WIND    PRES   REMARKS
BEND AIRPORT    CLOUDY      48  46  93  CALM    29.93S FOG
MADRAS AIRPORT  CLOUDY      54  54  100 CALM    29.94S
PRINEVILLE AP   CLOUDY      46  46  100 CALM    29.94R
REDMOND AIRPORT FOG         44  43  96  CALM    29.93S VSB 3/4
#ASHWOOD SCHOOL N/A         50  49  96  CALM    29.90S
#BEND 1SW       N/A         46  45  96  CALM    N/A
#BEND-AWBREY    N/A         48  47  96  E2      29.87S
#BEND-KIM LN    N/A         47  46  96  CALM    29.91S
#CULVER         N/A         50  47  89  CALM    29.84R
#LAKE BILLY CHINN/A         52  N/A N/A CALM    30.00R
#POWELL BUTTE   N/A         47  43  86  CALM    29.81S
#PRINEVILLE 3N  N/A         56  N/A N/A NW2     29.85F
#WARM SPRINGS   N/A         52  48  86  CALM    29.90S

$$


ORZ509-051410-
EAST SLOPES OF OREGON CASCADES

CITY            SKY/WX      TMP DP  RH  WIND    PRES   REMARKS
SISTERS AWOS    N/A         46  46  100 CALM    29.93R
#BLUE BOX PASS  N/A         42  N/A N/A SE1     N/A
#CAMP SHERMAN   N/A         44  42  93  CALM    29.97R
#LA PINE DOT    N/A         45  43  93  S1      N/A
#LA PINE 4NW    N/A         44  41  89  CALM    29.89F
#LAVA BUTTE DOT N/A         43  42  96  CALM    N/A
#SISTERS AIRPOR N/A         47  47  100 CALM    30.17S
#SISTERS ODOT   N/A         46  N/A N/A CALM    N/A
#SISTERS 3N     N/A         47  44  89  CALM    29.94S
#SUNRIVER       N/A         47  45  93  CALM    29.87F
#SUTTLE LK DOT  N/A         40  40  100 W3      N/A
#TUMALO 3W      N/A         48  47  96  CALM    29.75S
#WANOGA BUTTE D N/A         41  41  100 CALM    N/A

$$

ORZ044-051410-
LOWER COLUMBIA BASIN...OREGON

CITY            SKY/WX      TMP DP  RH  WIND    PRES   REMARKS
HERMISTON       CLOUDY      54  51  90  CALM    29.89F
#BOARDMAN SCHOOLN/A         55  51  86  CALM    29.89S
#BOARDMAN 8SW   N/A         54  51  90  SW6     29.88R
#ECHO 8SW       N/A         54  51  90  CALM    29.91S
#I-84 EX 198 DOTN/A         54  51  90  NE3     N/A
#UMATILLA SCHOOLN/A         N/A N/A N/A CALM    N/A
#UMATILLA       N/A         55  50  83  CALM    29.82F
$$

ORZ507-051410-
NORTHERN FOOTHILLS OF THE BLUES

CITY            SKY/WX      TMP DP  RH  WIND    PRES   REMARKS
PENDLETON AIRPT CLOUDY      52  50  93  SE6     29.91S
#ADAMS 3WNW     N/A         51  50  96  CALM    29.88S
#ATHENA         N/A         52  51  96  CALM    29.89S
#CAYUSE         N/A         52  50  93  E1      29.86F
#HELIX 3N       N/A         52  49  89  S5      29.89F
#HELIX 6SW      N/A         49  47  93  NE3     29.91F
#HOLDMAN 5SE    N/A         50  48  93  CALM    29.90F
#HOLDMAN 6E     N/A         51  48  89  CALM    29.68F
#M-F FERNDALE   N/A         54  52  93  CALM    29.90R
#M-F GROVE ELEM N/A         56  51  83  CALM    29.89S
#M-FREEWATER 5SEN/A         55  51  86  CALM    29.91S
#PENDLETON DNTN N/A         53  50  89  CALM    29.92F
#PDT AQUATIC CTRN/A         57  48  72  CALM    29.93S
#PDT SUNRIDGE   N/A         51  50  96  CALM    29.92F
#PENDLETON 7NW  N/A         51  47  86  CALM    32.33S
#PILOT ROCK     N/A         51  46  83  CALM    29.92F
#TUTUILLA       N/A         50  48  93  CALM    29.90S
#UMAPINE 2E     N/A         55  53  93  CALM    29.88R
#WESTON SCHOOL  N/A         53  48  83  CALM    29.83S

$$

ORZ508-051410-
SOUTHERN FOOTHILLS OF THE BLUES

CITY            SKY/WX      TMP DP  RH  WIND    PRES   REMARKS
#AJAX           N/A         50  43  77  CALM    27.68S
#FOSSIL SCHOOL  N/A         51  50  96  CALM    29.88R
#HEPPNER EOC    N/A         53  49  86  CALM    29.79F
#HEPPNER 4NE    N/A         50  47  89  SE1     29.85S
#LEXINGTON 2SE  N/A         54  51  90  CALM    29.89R
#OLEX 4N        N/A         51  48  89  SW8     29.89F
#RUGGS 5NE      N/A         51  50  96  CALM    30.07S
#RUGGS 2SW      N/A         51  48  89  S1      29.87F

$$

ORZ502-503-051410-
BLUE MOUNTAINS

CITY            SKY/WX      TMP DP  RH  WIND    PRES   REMARKS
#BATTLE MTN DOT N/A         46  46  100 CALM    N/A
#GREENHORN 9SW  N/A         47  46  96  CALM    26.14F
#HARDMAN 10S    N/A         46  45  96  CALM    29.95F
#HEPPNER 15SE   N/A         45  44  96  CALM    25.45F
#LADD CYN SMT   N/A         50  42  74  SW2     N/A
#LADD CREEK ODOTN/A         50  45  83  SW2     N/A
#LONG CREEK HS  N/A         49  49  100 CALM    N/A
#N POWDER DOT   N/A         48  46  93  SE2     N/A
#PIKES PEAK     N/A         54  46  74  CALM    27.99S
#TOLLGATE       N/A         44  43  96  CALM    29.85S
#TROY SCHOOL    N/A         53  47  80  CALM    29.73R
#UKIAH          N/A         45  44  96  CALM    29.78F
#WESTON 4E      N/A         50  47  89  CALM    29.82S
$$

ORZ505-051410-
JOHN DAY BASIN

CITY            SKY/WX      TMP DP  RH  WIND    PRES   REMARKS
JOHN DAY        CLOUDY      53  47  80  S7      29.94R
#MITCHELL       N/A         51  51  100 CALM    30.09R
#MITCHELL 8NW   N/A         50  46  86  CALM    30.05R
#MT. VERNON 5SE N/A         51  45  80  W2      29.89R
#SPRAY SCHOOL   N/A         54  N/A N/A CALM    N/A
#WINLOCK        N/A         50  48  93  CALM    29.89S
$$

ORZ506-051410-
OCHOCO AND JOHN DAY HIGHLANDS

CITY            SKY/WX      TMP DP  RH  WIND    PRES   REMARKS
#BUCK CREEK DOT N/A         49  48  96  E5      N/A
#HORSE RIDGE DO N/A         42  40  93  CALM    N/A
#KEYES SMT DOT  N/A         48  45  89  SW2     N/A
#PAULINA SCHOOL N/A         46  43  89  CALM    29.18S
#PINE MTN OBS   N/A         41  38  89  S10     N/A
#PRAIRIE CITY   N/A         49  47  93  CALM    29.90F
#SENECA         N/A         47  N/A N/A CALM    N/A
#SENECA 9NW     N/A         45  44  96  CALM    29.81R
$$

ORZ049-051410-
GRANDE RONDE VALLEY

CITY            SKY/WX      TMP DP  RH  WIND    PRES   REMARKS
LA GRANDE       CLOUDY      50  39  66  CALM    29.93S
#COVE           N/A         49  48  96  CALM    29.96F
#COVE SCHOOL    N/A         49  46  89  CALM    29.96S
#COVE 6NW       N/A         48  45  89  CALM    29.81F
#ELGIN 3N       N/A         48  45  89  CALM    29.91F
#ELGIN 1E       N/A         48  43  83  CALM    N/A
#ISLAND CITY 4N N/A         49  46  89  CALM    29.99R
#LADD CYN DOT   N/A         52  48  86  SE3     N/A
#LA GRANDE ELEM N/A         51  48  89  CALM    29.96S
#UNION 1S       N/A         50  46  86  CALM    29.76R
$$

ORZ050-051410-
WALLOWA COUNTY

CITY            SKY/WX      TMP DP  RH  WIND    PRES   REMARKS
#ENTERPRISE AP  N/A         49  29  46  CALM    29.90S
#ENTERPRISE HS  N/A         50  47  89  CALM    29.98R
#IMNAHA SCHOOL  N/A         55  53  93  CALM    29.93S
#IMNAHA 10S     N/A         49  46  89  SW3     29.95R
#JOSEPH 3N      N/A         48  42  80  CALM    29.99S
#JOSEPH 3W      N/A         N/A N/A N/A CALM    29.83S
#LOSTINE        N/A         46  43  89  CALM    29.66S
#MT HOWARD 8000 N/A         38  34  85  W1      30.07R
#PROMISE 1S     N/A         47  43  86  CALM    29.95R
#WALLOWA SCHOOL N/A         48  45  89  CALM    29.92S



$$



USA.gov is the U.S. government's official web portal to all federal, state and local government web resources and services.